QPF
0.00 0.00 0.00 0.01 0.01 0.01 0.01 0.01 0.01 0.02 0.01 0.01 0.02 0.01 0.02 0.03 0.03 0.03 0.02 0.02 0.02 0.02 0.03 0.02 0.02 0.02 0.03 0.03 0.04 0.04 0.05 0.05 0.07 0.06 0.05 0.04 0.04 0.06 0.06 0.07 0.10 0.16 0.16
0.00 0.00 0.00 0.00 0.00 0.00 0.00 0.01 0.01 0.01 0.01 0.01 0.02 0.02 0.02 0.03 0.03 0.03 0.04 0.03 0.03 0.02 0.03 0.03 0.03 0.03 0.04 0.03 0.04 0.04 0.04 0.04 0.05 0.06 0.06 0.05 0.05 0.06 0.07 0.09 0.10 0.13 0.16
0.00 0.00 0.00 0.00 0.00 0.00 0.01 0.01 0.01 0.01 0.00 0.01 0.01 0.01 0.03 0.04 0.04 0.04 0.04 0.04 0.04 0.04 0.05 0.04 0.04 0.04 0.04 0.04 0.04 0.04 0.04 0.04 0.06 0.05 0.07 0.07 0.06 0.06 0.08 0.11 0.13 0.14 0.14
0.00 0.00 0.00 0.00 0.00 0.00 0.01 0.01 0.01 0.01 0.01 0.01 0.01 0.01 0.02 0.02 0.04 0.03 0.04 0.05 0.05 0.05 0.06 0.06 0.04 0.04 0.04 0.04 0.05 0.05 0.05 0.06 0.05 0.03 0.06 0.11 0.13 0.08 0.07 0.08 0.11 0.12 0.12
0.00 0.00 0.01 0.01 0.00 0.00 0.00 0.00 0.00 0.01 0.01 0.01 0.02 0.02 0.01 0.02 0.03 0.04 0.04 0.05 0.06 0.04 0.05 0.06 0.06 0.06 0.05 0.04 0.06 0.07 0.04 0.05 0.05 0.04 0.07 0.11 0.11 0.09 0.08 0.06 0.07 0.09 0.09
0.00 0.01 0.01 0.01 0.01 0.01 0.01 0.01 0.01 0.01 0.02 0.03 0.03 0.03 0.02 0.03 0.05 0.06 0.05 0.04 0.04 0.04 0.04 0.05 0.06 0.07 0.06 0.06 0.06 0.07 0.06 0.05 0.05 0.04 0.06 0.08 0.07 0.07 0.07 0.06 0.05 0.05 0.05
0.01 0.01 0.01 0.01 0.01 0.01 0.01 0.03 0.02 0.03 0.04 0.05 0.04 0.04 0.04 0.05 0.05 0.05 0.05 0.05 0.05 0.06 0.05 0.04 0.06 0.07 0.07 0.06 0.06 0.06 0.06 0.05 0.04 0.04 0.04 0.05 0.05 0.06 0.06 0.07 0.05 0.04 0.04
0.00 0.01 0.02 0.02 0.04 0.04 0.04 0.06 0.03 0.04 0.05 0.07 0.05 0.06 0.05 0.05 0.07 0.09 0.07 0.05 0.04 0.03 0.04 0.04 0.04 0.05 0.06 0.06 0.05 0.05 0.06 0.05 0.03 0.03 0.03 0.03 0.03 0.05 0.06 0.06 0.05 0.05 0.04
0.02 0.01 0.02 0.02 0.05 0.05 0.05 0.06 0.06 0.08 0.11 0.06 0.05 0.06 0.05 0.05 0.06 0.07 0.06 0.04 0.04 0.03 0.03 0.04 0.06 0.05 0.06 0.06 0.05 0.03 0.04 0.04 0.04 0.03 0.04 0.03 0.04 0.05 0.07 0.08 0.07 0.06 0.04
0.04 0.02 0.02 0.02 0.03 0.03 0.07 0.10 0.07 0.09 0.05 0.04 0.05 0.05 0.04 0.04 0.04 0.03 0.02 0.02 0.04 0.04 0.04 0.09 0.12 0.08 0.08 0.06 0.05 0.04 0.05 0.05 0.04 0.05 0.05 0.05 0.05 0.05 0.06 0.08 0.08 0.07 0.06
0.05 0.02 0.02 0.02 0.02 0.03 0.09 0.07 0.04 0.04 0.03 0.03 0.03 0.05 0.04 0.03 0.03 0.02 0.01 0.01 0.01 0.03 0.04 0.08 0.10 0.08 0.08 0.07 0.07 0.08 0.08 0.06 0.05 0.04 0.05 0.05 0.04 0.04 0.05 0.07 0.07 0.07 0.06
0.06 0.03 0.03 0.03 0.02 0.02 0.02 0.03 0.03 0.03 0.03 0.03 0.03 0.02 0.01 0.02 0.02 0.01 0.01 0.01 0.02 0.02 0.03 0.05 0.06 0.06 0.07 0.08 0.09 0.08 0.08 0.07 0.05 0.05 0.06 0.05 0.05 0.05 0.05 0.06 0.05 0.05 0.05
0.05 0.04 0.04 0.03 0.02 0.02 0.03 0.02 0.02 0.02 0.04 0.04 0.03 0.02 0.01 0.01 0.02 0.02 0.02 0.02 0.02 0.03 0.05 0.06 0.06 0.07 0.08 0.08 0.08 0.09 0.10 0.08 0.06 0.06 0.06 0.06 0.06 0.05 0.05 0.05 0.04 0.05 0.06
0.06 0.04 0.04 0.03 0.03 0.03 0.03 0.02 0.02 0.02 0.02 0.04 0.03 0.03 0.03 0.03 0.04 0.03 0.02 0.01 0.02 0.03 0.05 0.10 0.12 0.10 0.11 0.08 0.08 0.09 0.09 0.08 0.09 0.10 0.09 0.08 0.05 0.05 0.06 0.04 0.03 0.04 0.05
0.07 0.05 0.05 0.04 0.04 0.04 0.04 0.04 0.04 0.04 0.04 0.06 0.07 0.05 0.03 0.02 0.01 0.01 0.00 0.01 0.02 0.03 0.04 0.07 0.12 0.12 0.10 0.08 0.08 0.09 0.09 0.09 0.10 0.07 0.06 0.05 0.05 0.06 0.05 0.04 0.03 0.03 0.03
0.10 0.09 0.10 0.09 0.10 0.10 0.10 0.12 0.16 0.14 0.09 0.05 0.04 0.03 0.02 0.01 0.01 0.01 0.02 0.03 0.03 0.03 0.03 0.03 0.07 0.08 0.07 0.08 0.07 0.07 0.06 0.06 0.06 0.04 0.03 0.03 0.04 0.06 0.05 0.04 0.04 0.03 0.03
0.10 0.12 0.17 0.18 0.19 0.19 0.17 0.18 0.17 0.10 0.07 0.05 0.04 0.04 0.03 0.03 0.03 0.02 0.02 0.03 0.03 0.04 0.03 0.03 0.04 0.04 0.03 0.05 0.05 0.05 0.05 0.04 0.04 0.05 0.04 0.04 0.03 0.04 0.03 0.04 0.04 0.04 0.04
0.07 0.12 0.20 0.27 0.25 0.21 0.15 0.11 0.07 0.04 0.03 0.03 0.03 0.03 0.03 0.03 0.03 0.03 0.02 0.03 0.03 0.02 0.02 0.02 0.02 0.03 0.02 0.05 0.05 0.05 0.04 0.04 0.05 0.05 0.04 0.03 0.03 0.03 0.03 0.04 0.03 0.03 0.04
0.06 0.11 0.23 0.27 0.19 0.11 0.06 0.04 0.03 0.03 0.03 0.03 0.04 0.04 0.04 0.04 0.03 0.02 0.03 0.02 0.02 0.02 0.01 0.02 0.02 0.02 0.02 0.05 0.06 0.05 0.03 0.03 0.04 0.04 0.03 0.03 0.03 0.03 0.03 0.03 0.02 0.01 0.02
0.04 0.07 0.12 0.11 0.08 0.05 0.04 0.03 0.03 0.03 0.03 0.03 0.05 0.06 0.07 0.05 0.03 0.02 0.01 0.01 0.01 0.02 0.02 0.02 0.02 0.04 0.04 0.06 0.06 0.05 0.03 0.02 0.03 0.02 0.02 0.03 0.02 0.03 0.04 0.03 0.01 0.01 0.01
0.06 0.08 0.14 0.13 0.09 0.07 0.06 0.04 0.03 0.03 0.03 0.04 0.06 0.07 0.07 0.05 0.04 0.02 0.01 0.01 0.02 0.02 0.02 0.02 0.04 0.05 0.06 0.09 0.09 0.07 0.04 0.03 0.03 0.02 0.02 0.02 0.02 0.03 0.03 0.02 0.01 0.01 0.01
0.07 0.11 0.15 0.14 0.08 0.07 0.05 0.04 0.04 0.04 0.05 0.06 0.06 0.06 0.06 0.05 0.04 0.03 0.02 0.01 0.01 0.01 0.02 0.03 0.05 0.06 0.07 0.08 0.08 0.07 0.06 0.04 0.03 0.02 0.01 0.02 0.02 0.02 0.02 0.02 0.02 0.02 0.02
0.05 0.07 0.07 0.05 0.04 0.03 0.04 0.04 0.05 0.05 0.06 0.07 0.07 0.06 0.05 0.04 0.03 0.03 0.02 0.02 0.02 0.02 0.03 0.04 0.05 0.06 0.07 0.08 0.08 0.06 0.05 0.03 0.02 0.01 0.01 0.02 0.01 0.01 0.01 0.01 0.02 0.02 0.02
0.04 0.06 0.07 0.06 0.05 0.03 0.03 0.03 0.04 0.05 0.05 0.05 0.05 0.05 0.05 0.04 0.04 0.03 0.04 0.04 0.03 0.03 0.04 0.04 0.03 0.05 0.07 0.09 0.07 0.05 0.03 0.02 0.01 0.01 0.01 0.01 0.01 0.01 0.01 0.01 0.01 0.02 0.03
0.03 0.04 0.07 0.08 0.06 0.04 0.04 0.04 0.04 0.05 0.06 0.06 0.05 0.05 0.04 0.03 0.03 0.02 0.03 0.03 0.02 0.02 0.02 0.02 0.02 0.03 0.04 0.06 0.06 0.04 0.03 0.02 0.02 0.02 0.02 0.02 0.03 0.04 0.04 0.03 0.03 0.03 0.03
0.04 0.04 0.05 0.05 0.05 0.06 0.09 0.11 0.09 0.07 0.06 0.07 0.06 0.04 0.03 0.04 0.03 0.02 0.01 0.01 0.01 0.01 0.01 0.02 0.02 0.03 0.03 0.03 0.03 0.03 0.02 0.02 0.03 0.02 0.02 0.03 0.04 0.04 0.03 0.02 0.02 0.02 0.02
MSLP
1010.64 1010.84 1011.06 1011.30 1011.54 1011.79 1012.05 1012.34 1012.67 1013.04 1013.42 1013.81 1014.17 1014.47 1014.70 1014.83 1014.88 1014.87 1014.83 1014.79 1014.79 1014.86 1015.00 1015.23 1015.51 1015.82 1016.15 1016.46 1016.75 1017.00 1017.20 1017.37 1017.51 1017.62 1017.72 1017.78 1017.82 1017.83 1017.81 1017.75 1017.69 1017.62 1017.57
1010.15 1010.45 1010.76 1011.06 1011.33 1011.58 1011.84 1012.14 1012.48 1012.89 1013.34 1013.81 1014.24 1014.61 1014.87 1015.00 1015.02 1014.94 1014.82 1014.70 1014.64 1014.66 1014.78 1015.01 1015.31 1015.66 1016.01 1016.33 1016.61 1016.84 1017.02 1017.16 1017.29 1017.40 1017.52 1017.62 1017.71 1017.77 1017.79 1017.76 1017.70 1017.61 1017.53
1009.51 1009.92 1010.33 1010.70 1011.02 1011.30 1011.56 1011.85 1012.20 1012.63 1013.12 1013.65 1014.15 1014.58 1014.88 1015.04 1015.04 1014.94 1014.77 1014.61 1014.50 1014.49 1014.60 1014.82 1015.13 1015.48 1015.82 1016.14 1016.39 1016.59 1016.75 1016.87 1016.99 1017.12 1017.28 1017.44 1017.59 1017.73 1017.81 1017.84 1017.81 1017.73 1017.64
1008.82 1009.33 1009.84 1010.30 1010.67 1010.97 1011.23 1011.51 1011.85 1012.27 1012.78 1013.34 1013.88 1014.36 1014.71 1014.90 1014.93 1014.83 1014.65 1014.47 1014.35 1014.32 1014.41 1014.62 1014.91 1015.25 1015.57 1015.86 1016.09 1016.26 1016.39 1016.51 1016.63 1016.79 1016.99 1017.22 1017.45 1017.67 1017.84 1017.94 1017.96 1017.93 1017.84
1008.20 1008.81 1009.42 1009.96 1010.38 1010.70 1010.95 1011.19 1011.50 1011.89 1012.38 1012.93 1013.49 1014.00 1014.38 1014.61 1014.67 1014.59 1014.44 1014.26 1014.13 1014.09 1014.17 1014.35 1014.62 1014.92 1015.22 1015.48 1015.68 1015.83 1015.95 1016.07 1016.22 1016.41 1016.66 1016.95 1017.26 1017.56 1017.81 1017.99 1018.09 1018.11 1018.06
1007.82 1008.51 1009.19 1009.79 1010.25 1010.57 1010.80 1011.00 1011.25 1011.59 1012.02 1012.54 1013.08 1013.58 1013.97 1014.22 1014.32 1014.27 1014.13 1013.97 1013.84 1013.78 1013.83 1013.98 1014.21 1014.47 1014.74 1014.97 1015.16 1015.31 1015.44 1015.58 1015.76 1015.99 1016.28 1016.63 1017.00 1017.36 1017.68 1017.94 1018.12 1018.21 1018.23
1007.81 1008.54 1009.27 1009.89 1010.36 1010.67 1010.87 1011.01 1011.19 1011.45 1011.81 1012.25 1012.74 1013.21 1013.59 1013.84 1013.94 1013.91 1013.78 1013.62 1013.47 1013.39 1013.40 1013.50 1013.68 1013.91 1014.14 1014.36 1014.55 1014.72 1014.88 1015.05 1015.27 1015.54 1015.86 1016.24 1016.64 1017.05 1017.42 1017.74 1017.99 1018.17 1018.28
1008.22 1008.95 1009.68 1010.29 1010.75 1011.02 1011.17 1011.26 1011.36 1011.53 1011.80 1012.17 1012.58 1012.98 1013.32 1013.54 1013.62 1013.57 1013.42 1013.24 1013.06 1012.93 1012.89 1012.94 1013.07 1013.25 1013.46 1013.68 1013.89 1014.10 1014.30 1014.52 1014.78 1015.08 1015.42 1015.81 1016.22 1016.63 1017.03 1017.39 1017.71 1017.98 1018.20
1009.00 1009.69 1010.37 1010.94 1011.35 1011.58 1011.68 1011.71 1011.75 1011.85 1012.04 1012.32 1012.64 1012.96 1013.23 1013.38 1013.41 1013.31 1013.13 1012.89 1012.66 1012.47 1012.36 1012.35 1012.43 1012.58 1012.78 1013.01 1013.25 1013.50 1013.76 1014.04 1014.33 1014.65 1015.00 1015.37 1015.76 1016.15 1016.54 1016.93 1017.30 1017.65 1017.99
1010.04 1010.65 1011.24 1011.72 1012.06 1012.23 1012.29 1012.29 1012.29 1012.34 1012.48 1012.68 1012.93 1013.16 1013.34 1013.41 1013.36 1013.19 1012.93 1012.63 1012.33 1012.07 1011.89 1011.82 1011.85 1011.97 1012.17 1012.42 1012.70 1013.01 1013.33 1013.65 1013.98 1014.32 1014.65 1014.99 1015.33 1015.69 1016.05 1016.44 1016.84 1017.27 1017.71
1011.16 1011.64 1012.10 1012.47 1012.72 1012.84 1012.87 1012.87 1012.87 1012.92 1013.03 1013.19 1013.37 1013.53 1013.62 1013.60 1013.46 1013.21 1012.87 1012.50 1012.13 1011.80 1011.57 1011.44 1011.44 1011.54 1011.74 1012.01 1012.34 1012.70 1013.07 1013.44 1013.79 1014.13 1014.44 1014.73 1015.02 1015.32 1015.65 1016.02 1016.44 1016.93 1017.46
1012.17 1012.50 1012.80 1013.05 1013.20 1013.28 1013.31 1013.33 1013.37 1013.45 1013.58 1013.74 1013.89 1013.99 1014.00 1013.90 1013.68 1013.35 1012.95 1012.51 1012.09 1011.72 1011.44 1011.29 1011.26 1011.35 1011.55 1011.85 1012.21 1012.60 1013.01 1013.41 1013.78 1014.11 1014.40 1014.65 1014.89 1015.13 1015.42 1015.76 1016.19 1016.71 1017.31
1012.91 1013.08 1013.23 1013.34 1013.42 1013.47 1013.52 1013.60 1013.71 1013.87 1014.05 1014.23 1014.38 1014.44 1014.41 1014.25 1013.97 1013.59 1013.14 1012.67 1012.23 1011.84 1011.56 1011.39 1011.36 1011.45 1011.66 1011.97 1012.34 1012.76 1013.19 1013.60 1013.97 1014.30 1014.56 1014.78 1014.98 1015.18 1015.42 1015.74 1016.16 1016.69 1017.33
1013.32 1013.33 1013.33 1013.33 1013.35 1013.40 1013.50 1013.66 1013.87 1014.12 1014.38 1014.61 1014.77 1014.83 1014.77 1014.58 1014.27 1013.87 1013.42 1012.96 1012.54 1012.18 1011.91 1011.77 1011.75 1011.85 1012.06 1012.36 1012.74 1013.15 1013.58 1013.99 1014.35 1014.66 1014.91 1015.11 1015.28 1015.45 1015.67 1015.97 1016.38 1016.90 1017.54
1013.38 1013.26 1013.15 1013.07 1013.06 1013.13 1013.29 1013.55 1013.87 1014.23 1014.57 1014.86 1015.05 1015.12 1015.05 1014.86 1014.56 1014.18 1013.77 1013.36 1012.99 1012.69 1012.48 1012.38 1012.39 1012.50 1012.71 1013.00 1013.35 1013.73 1014.14 1014.52 1014.87 1015.17 1015.42 1015.61 1015.78 1015.95 1016.15 1016.44 1016.82 1017.32 1017.93
1013.14 1012.94 1012.76 1012.65 1012.64 1012.75 1013.00 1013.35 1013.78 1014.23 1014.64 1014.98 1015.21 1015.30 1015.25 1015.08 1014.81 1014.49 1014.15 1013.83 1013.56 1013.35 1013.23 1013.18 1013.23 1013.35 1013.54 1013.80 1014.11 1014.45 1014.81 1015.16 1015.49 1015.78 1016.03 1016.23 1016.41 1016.59 1016.81 1017.08 1017.45 1017.91 1018.47
1012.70 1012.47 1012.28 1012.18 1012.21 1012.39 1012.72 1013.16 1013.67 1014.19 1014.66 1015.03 1015.28 1015.39 1015.37 1015.24 1015.04 1014.80 1014.57 1014.36 1014.21 1014.11 1014.08 1014.10 1014.18 1014.31 1014.48 1014.70 1014.95 1015.23 1015.53 1015.84 1016.15 1016.43 1016.68 1016.91 1017.12 1017.33 1017.56 1017.84 1018.18 1018.60 1019.10
1012.16 1011.96 1011.81 1011.76 1011.86 1012.12 1012.52 1013.03 1013.60 1014.16 1014.66 1015.05 1015.31 1015.44 1015.45 1015.37 1015.25 1015.11 1015.00 1014.92 1014.90 1014.92 1014.98 1015.07 1015.18 1015.31 1015.45 1015.61 1015.80 1016.02 1016.26 1016.52 1016.80 1017.08 1017.35 1017.60 1017.85 1018.09 1018.35 1018.63 1018.95 1019.33 1019.77
1011.59 1011.47 1011.41 1011.45 1011.63 1011.96 1012.43 1012.99 1013.59 1014.16 1014.66 1015.05 1015.31 1015.46 1015.51 1015.49 1015.45 1015.43 1015.44 1015.49 1015.59 1015.72 1015.86 1016.01 1016.14 1016.26 1016.37 1016.48 1016.61 1016.76 1016.95 1017.17 1017.42 1017.70 1017.99 1018.27 1018.55 1018.83 1019.11 1019.40 1019.71 1020.05 1020.43
1011.06 1011.04 1011.08 1011.23 1011.50 1011.91 1012.42 1013.00 1013.60 1014.16 1014.65 1015.02 1015.29 1015.45 1015.54 1015.60 1015.65 1015.73 1015.86 1016.03 1016.24 1016.46 1016.67 1016.86 1017.01 1017.12 1017.20 1017.27 1017.34 1017.44 1017.59 1017.78 1018.02 1018.30 1018.60 1018.91 1019.22 1019.53 1019.83 1020.12 1020.42 1020.73 1021.05
1010.58 1010.67 1010.83 1011.07 1011.43 1011.89 1012.43 1013.01 1013.59 1014.13 1014.58 1014.94 1015.21 1015.40 1015.54 1015.67 1015.82 1016.00 1016.23 1016.51 1016.80 1017.10 1017.36 1017.58 1017.74 1017.84 1017.90 1017.94 1017.98 1018.05 1018.17 1018.35 1018.58 1018.87 1019.18 1019.51 1019.85 1020.17 1020.48 1020.78 1021.07 1021.35 1021.64
1010.16 1010.35 1010.59 1010.92 1011.33 1011.83 1012.37 1012.94 1013.49 1014.00 1014.43 1014.77 1015.05 1015.28 1015.48 1015.68 1015.92 1016.20 1016.53 1016.88 1017.25 1017.59 1017.89 1018.13 1018.29 1018.40 1018.45 1018.48 1018.52 1018.59 1018.71 1018.89 1019.13 1019.42 1019.75 1020.09 1020.43 1020.76 1021.08 1021.37 1021.65 1021.92 1022.18
1009.80 1010.05 1010.36 1010.74 1011.18 1011.67 1012.21 1012.74 1013.26 1013.73 1014.13 1014.48 1014.78 1015.05 1015.32 1015.61 1015.93 1016.30 1016.70 1017.12 1017.53 1017.91 1018.24 1018.49 1018.67 1018.78 1018.85 1018.90 1018.96 1019.05 1019.19 1019.39 1019.65 1019.96 1020.29 1020.63 1020.98 1021.30 1021.61 1021.89 1022.16 1022.42 1022.67
1009.50 1009.78 1010.11 1010.50 1010.93 1011.41 1011.90 1012.40 1012.87 1013.31 1013.70 1014.06 1014.39 1014.72 1015.05 1015.42 1015.82 1016.26 1016.72 1017.19 1017.64 1018.04 1018.38 1018.66 1018.86 1019.00 1019.10 1019.20 1019.30 1019.43 1019.62 1019.85 1020.14 1020.45 1020.79 1021.13 1021.46 1021.77 1022.06 1022.33 1022.58 1022.83 1023.08
1009.27 1009.54 1009.85 1010.22 1010.62 1011.05 1011.49 1011.93 1012.36 1012.77 1013.15 1013.52 1013.89 1014.27 1014.67 1015.11 1015.58 1016.08 1016.58 1017.09 1017.56 1017.98 1018.34 1018.64 1018.87 1019.06 1019.22 1019.37 1019.53 1019.73 1019.97 1020.24 1020.55 1020.87 1021.21 1021.53 1021.84 1022.13 1022.40 1022.65 1022.89 1023.14 1023.39
1009.12 1009.35 1009.62 1009.92 1010.27 1010.63 1011.01 1011.39 1011.78 1012.15 1012.53 1012.92 1013.32 1013.74 1014.20 1014.70 1015.22 1015.76 1016.30 1016.82 1017.31 1017.75 1018.14 1018.46 1018.74 1018.98 1019.20 1019.42 1019.65 1019.92 1020.21 1020.52 1020.85 1021.18 1021.51 1021.81 1022.09 1022.35 1022.59 1022.82 1023.06 1023.30 1023.56
Thickness
5821 5820 5817 5814 5808 5802 5798 5794 5790 5787 5784 5779 5775 5771 5769 5769 5768 5766 5765 5764 5762 5760 5759 5758 5756 5754 5752 5751 5751 5750 5748 5747 5748 5744 5742 5745 5747 5747 5746 5745 5744 5743 5742
5818 5818 5816 5813 5808 5803 5799 5796 5792 5788 5785 5782 5778 5775 5772 5770 5769 5768 5766 5765 5763 5762 5760 5758 5756 5755 5753 5752 5751 5749 5746 5746 5747 5742 5736 5733 5736 5741 5745 5744 5743 5743 5742
5821 5819 5816 5813 5810 5805 5801 5798 5794 5790 5787 5783 5779 5775 5771 5769 5767 5766 5765 5766 5765 5763 5761 5760 5758 5756 5754 5752 5751 5750 5748 5744 5746 5745 5738 5730 5727 5732 5738 5742 5742 5742 5741
5826 5822 5818 5814 5812 5809 5806 5801 5796 5791 5787 5784 5779 5773 5768 5764 5765 5766 5766 5766 5766 5764 5762 5761 5759 5757 5755 5754 5753 5753 5750 5747 5743 5744 5744 5741 5738 5731 5729 5735 5739 5740 5739
5830 5825 5823 5819 5816 5812 5807 5802 5797 5792 5788 5784 5780 5775 5771 5769 5768 5767 5766 5766 5766 5765 5763 5762 5760 5758 5756 5755 5754 5753 5751 5749 5746 5744 5743 5741 5739 5737 5730 5727 5732 5735 5737
5830 5827 5824 5820 5815 5812 5807 5802 5796 5792 5789 5785 5781 5777 5773 5770 5768 5766 5765 5764 5764 5764 5764 5763 5761 5759 5758 5756 5755 5754 5752 5750 5749 5747 5744 5741 5738 5735 5732 5729 5728 5728 5731
5828 5824 5821 5817 5813 5809 5806 5801 5796 5792 5789 5785 5781 5779 5776 5773 5770 5767 5765 5764 5763 5762 5763 5763 5761 5760 5758 5757 5756 5754 5752 5751 5749 5747 5745 5744 5742 5741 5737 5732 5728 5727 5728
5828 5826 5822 5819 5816 5812 5807 5802 5796 5792 5789 5785 5782 5780 5778 5775 5772 5769 5767 5765 5764 5764 5765 5763 5762 5761 5759 5758 5756 5753 5752 5751 5749 5748 5746 5745 5744 5743 5740 5735 5730 5725 5724
5828 5826 5824 5820 5817 5813 5809 5805 5798 5792 5788 5786 5782 5780 5778 5775 5772 5770 5768 5767 5766 5765 5765 5763 5761 5760 5758 5757 5755 5752 5751 5750 5748 5747 5746 5744 5744 5743 5742 5739 5735 5727 5720
5826 5825 5823 5820 5818 5816 5812 5806 5801 5794 5790 5786 5783 5781 5778 5775 5773 5771 5768 5767 5766 5765 5763 5762 5760 5759 5756 5755 5753 5751 5750 5748 5747 5746 5744 5743 5743 5742 5741 5739 5736 5733 5726
5822 5822 5822 5820 5818 5814 5810 5804 5800 5794 5790 5786 5783 5781 5778 5775 5772 5770 5768 5766 5765 5763 5762 5760 5758 5756 5754 5753 5751 5749 5748 5746 5744 5744 5742 5741 5741 5739 5738 5737 5735 5732 5728
5823 5822 5820 5816 5813 5809 5806 5802 5798 5794 5790 5787 5783 5779 5776 5773 5770 5768 5766 5765 5763 5762 5760 5759 5757 5755 5753 5752 5750 5747 5746 5743 5741 5740 5739 5738 5739 5737 5736 5734 5732 5730 5728
5816 5814 5812 5810 5807 5804 5802 5800 5797 5794 5790 5785 5780 5777 5773 5771 5768 5767 5765 5763 5761 5759 5758 5757 5754 5752 5751 5750 5748 5746 5744 5742 5740 5738 5737 5736 5735 5733 5732 5731 5729 5727 5725
5808 5806 5804 5804 5803 5801 5798 5795 5792 5791 5787 5782 5777 5773 5771 5769 5767 5765 5763 5761 5759 5757 5756 5754 5752 5751 5749 5747 5746 5744 5741 5739 5737 5736 5735 5733 5732 5730 5729 5727 5724 5722 5718
5802 5800 5797 5797 5797 5795 5793 5790 5787 5785 5783 5778 5774 5771 5769 5767 5765 5762 5760 5758 5757 5755 5753 5751 5750 5748 5747 5745 5743 5740 5738 5735 5733 5731 5730 5730 5729 5728 5726 5723 5719 5716 5712
5796 5795 5794 5793 5791 5791 5788 5786 5782 5778 5777 5773 5771 5768 5766 5764 5761 5759 5757 5755 5753 5751 5750 5747 5745 5744 5742 5741 5739 5737 5734 5732 5729 5726 5725 5725 5723 5723 5721 5718 5716 5713 5708
5792 5791 5791 5789 5788 5787 5785 5782 5779 5776 5773 5769 5766 5764 5762 5760 5758 5756 5753 5750 5748 5746 5744 5742 5740 5738 5737 5736 5734 5732 5730 5727 5724 5722 5720 5719 5717 5716 5714 5711 5709 5706 5704
5786 5786 5786 5784 5783 5782 5780 5777 5772 5769 5767 5765 5763 5760 5757 5755 5753 5751 5748 5746 5743 5741 5739 5737 5735 5732 5731 5730 5728 5726 5724 5721 5718 5716 5714 5712 5710 5709 5707 5705 5701 5698 5696
5783 5782 5782 5781 5778 5776 5774 5771 5766 5763 5761 5759 5758 5756 5753 5750 5748 5745 5743 5741 5738 5735 5733 5730 5728 5726 5723 5723 5721 5720 5717 5714 5711 5710 5708 5706 5704 5703 5701 5698 5694 5691 5689
5778 5777 5776 5773 5771 5770 5768 5764 5758 5756 5755 5754 5753 5751 5749 5745 5742 5740 5738 5736 5733 5730 5727 5724 5722 5720 5717 5716 5715 5713 5710 5706 5704 5702 5701 5700 5698 5696 5694 5690 5687 5683 5680
5771 5771 5768 5764 5762 5762 5760 5755 5753 5750 5751 5750 5747 5745 5742 5740 5737 5734 5732 5729 5726 5723 5720 5716 5715 5713 5711 5710 5708 5706 5703 5700 5697 5695 5692 5691 5690 5688 5686 5684 5681 5678 5675
5763 5761 5758 5753 5754 5754 5751 5746 5743 5743 5744 5743 5740 5737 5734 5733 5731 5727 5724 5722 5719 5715 5712 5709 5707 5706 5705 5703 5701 5699 5697 5694 5691 5688 5686 5684 5682 5680 5678 5676 5673 5671 5668
5752 5750 5748 5745 5744 5745 5744 5738 5737 5738 5737 5734 5731 5728 5726 5724 5722 5720 5716 5713 5710 5707 5704 5701 5699 5697 5697 5696 5695 5692 5690 5688 5684 5682 5680 5677 5675 5673 5670 5668 5666 5663 5660
5742 5741 5739 5736 5733 5734 5735 5733 5732 5730 5729 5725 5722 5720 5717 5714 5712 5710 5708 5704 5701 5698 5696 5694 5692 5690 5689 5688 5686 5685 5682 5680 5677 5674 5671 5669 5667 5664 5662 5660 5657 5654 5651
5733 5733 5731 5728 5727 5727 5726 5725 5724 5724 5720 5717 5714 5711 5708 5705 5702 5699 5696 5695 5693 5691 5690 5688 5686 5684 5682 5681 5680 5678 5676 5672 5669 5666 5662 5659 5657 5654 5651 5649 5647 5644 5642
5723 5722 5722 5720 5719 5719 5718 5717 5717 5715 5711 5708 5706 5704 5700 5697 5694 5690 5686 5685 5684 5684 5684 5683 5681 5679 5677 5676 5674 5672 5669 5666 5662 5658 5653 5650 5647 5644 5641 5639 5637 5635 5632